[[{"header":{"parameterUnit":"m.s-1","parameterCategory":1,"la1":30.2991,"la2":30.254,"lo1":-89.0895,"lo2":-89.0444,"dy":0.0017,"dx":0.0017,"nx":28,"ny":28,"refTime":"2023-08-21T21:00:00:Z","depth":0,"parameterNumber":2,"parameterNumberName":"U-component_of_WINDS"},"data":[0,0,0,0,0,0,0,0,0,0,0,0,0,0,0,0,0,0,0,0,0,0,0,0,0,0,0,0,0,0,0,0,0,0,0,0,0,0,0,0,0,0,0,0,0,0,0,0,0,0,0,0,0,0,0,0,0,0,-6.0297,-6.0297,0,-6.0312,-6.0312,-6.0313,-6.0213,-6.021,-6.0207,-6.0204,-6.0222,-6.0225,-6.0228,0,0,0,0,0,0,0,0,0,0,0,0,0,-6.0183,-6.0186,-6.0297,-6.0297,-6.0297,-6.0312,-6.0312,-6.0313,-6.0213,-6.021,-6.0206,-6.0203,-6.0221,-6.0225,-6.0229,0,0,0,0,0,0,0,0,0,0,0,0,0,-6.0219,-6.0187,-6.0297,-6.0249,-6.0245,-6.0312,-6.0312,-6.0313,-6.0214,-6.021,-6.0206,-6.0202,-6.022,-6.0224,-6.0229,-6.0343,0,0,-6.0243,-6.0245,0,0,0,0,0,0,0,0,-6.0217,-6.0224,-6.0256,-6.0253,-6.0248,-6.0256,-6.0279,-6.0323,-6.0215,-6.0226,-6.0204,-6.0199,-6.0237,-6.024,-6.0252,-6.0344,-6.0344,-6.0244,-6.0247,-6.0249,-6.025,0,0,0,0,0,0,0,-6.0215,-6.0222,-6.0303,-6.0257,-6.0252,-6.0228,-6.0229,-6.0287,-6.0255,-6.0225,-6.0217,-6.0221,-6.0234,-6.0248,-6.0252,-6.0345,-6.0244,-6.0248,-6.0251,-6.0252,-6.0532,-6.0537,0,0,0,0,0,0,-6.0219,-6.0221,-6.0302,-6.0303,-6.0222,-6.0234,-6.0234,-6.0258,-6.0254,-6.025,-6.0224,-6.0216,-6.0242,-6.0247,-6.0252,-6.0387,-6.0249,-6.0253,-6.0256,-6.0528,-6.0533,-6.0538,0,0,0,0,0,0,-6.0217,-6.0227,-6.0302,-6.026,-6.0268,-6.024,-6.0268,-6.0261,-6.0274,-6.0254,-6.0248,-6.0244,-6.0239,-6.0246,-6.0321,-6.0386,-6.0255,-6.0259,-6.0522,-6.0529,-6.0536,-6.0656,0,0,0,0,0,0,-6.0214,-6.0227,-6.0269,-6.0262,-6.0271,-6.037,-6.0272,-6.0264,-6.0282,-6.0272,-6.0271,-6.0267,-6.0236,-6.0315,-6.0326,-6.039,-6.0263,-6.0516,-6.0525,-6.0534,-6.0646,-6.0666,-6.0683,0,0,0,0,0,-6.021,-6.0302,-6.0272,-6.0282,-6.0323,-6.0374,-6.0379,-6.0341,-6.0288,-6.0331,-6.0318,-6.0267,-6.0377,-6.0324,-6.0335,-6.0402,-6.0512,-6.0523,-6.0533,-6.0638,-6.0662,-6.0683,0,0,0,0,0,0,-6.0318,-6.03,-6.0266,-6.0359,-6.0369,-6.0357,-6.041,-6.0368,-6.0394,-6.0383,-6.0336,-6.0336,-6.0421,-6.0418,-6.0359,-6.0513,-6.0435,-6.0449,-6.0511,-6.0534,-6.0552,-6.0552,-6.0267,0,0,0,0,0,-6.0352,-6.0395,-6.0377,-6.0461,-6.0467,-6.0438,-6.0459,-6.0429,-6.0438,-6.0442,-6.0434,-6.0445,-6.0482,-6.0508,-6.0541,-6.0645,-6.0645,-6.0697,-6.0715,-6.073,-6.0743,-6.08,-6.0824,-6.0573,-6.0573,-6.0572,0,0,-6.0424,-6.042,-6.0449,-6.0482,-6.0486,-6.0533,-6.0442,-6.0494,-6.0529,-6.045,-6.0521,-6.0516,-6.0526,-6.0617,-6.0657,-6.0617,-6.0812,-6.0744,-6.0756,-6.076,-6.0813,-6.0837,-6.0858,-6.058,-6.0578,-6.0577,0,0,-6.0578,-6.0579,-6.0649,-6.0655,-6.0663,-6.0643,-6.066,-6.0655,-6.0649,-6.072,-6.0662,-6.0703,-6.0767,-6.0776,-6.079,-6.095,-6.0905,-6.0962,-6.106,-6.1116,-6.1136,-6.1153,-6.1212,-6.1234,-6.0974,-6.0974,-6.0975,0,-6.0667,-6.0733,-6.069,-6.0747,-6.0764,-6.0695,-6.0766,-6.0775,-6.0793,-6.0807,-6.0762,-6.0843,-6.0844,-6.0938,-6.0977,-6.0989,-6.1009,-6.0962,-6.1136,-6.1153,-6.1169,-6.1225,-6.1247,-6.0981,-6.0981,-6.098,-6.0979,0,-6.0843,-6.089,-6.0946,-6.0966,-6.0988,-6.1053,-6.1021,-6.1049,-6.1018,-6.1003,-6.1077,-6.1076,-6.1109,-6.1128,-6.1098,-6.1219,-6.1194,-6.1144,-6.1066,-6.1201,-6.1252,-6.1273,-6.0992,-6.0989,-6.0987,-6.0985,0,0,-6.1065,-6.1061,-6.1083,-6.1092,-6.1095,-6.1132,-6.1193,-6.1225,-6.1251,-6.1266,-6.1318,-6.1375,-6.1329,-6.1344,-6.1314,-6.1364,-6.1493,-6.1307,-6.1307,-6.1343,-6.1628,-6.1668,-6.1693,-6.1463,-6.1466,-6.147,-6.1628,0,-6.1218,-6.1322,-6.1286,-6.1393,-6.1437,-6.1372,-6.1426,-6.1435,-6.1424,-6.146,-6.1447,-6.1489,-6.1424,-6.1433,-6.1479,-6.1468,-6.155,-6.1455,-6.1512,-6.1515,-6.1513,-6.172,-6.1761,-6.1911,-6.1648,-6.1651,-6.1654,0,-6.1409,-6.1433,-6.1544,-6.1542,-6.1559,-6.1609,-6.1635,-6.1671,-6.168,-6.1668,-6.1687,-6.1647,-6.1708,-6.1629,-6.1715,-6.1652,-6.1673,-6.1671,-6.1676,-6.1681,-6.1594,-6.1732,-6.1957,-6.1981,-6.1685,-6.1682,-6.168,0,-6.1563,-6.1622,-6.1697,-6.1707,-6.1705,-6.1742,-6.1743,-6.1748,-6.177,-6.1794,-6.1808,-6.1839,-6.1856,-6.1882,-6.1852,-6.1797,-6.1943,-6.1861,-6.1937,-6.1938,-6.1972,-6.197,-6.2205,-6.1983,-6.1982,-6.1982,-6.1981,0,-6.1738,-6.181,-6.1767,-6.1813,-6.1891,-6.185,-6.1929,-6.1923,-6.1929,-6.1974,-6.1919,-6.1963,-6.192,-6.196,-6.1937,-6.2013,-6.2021,-6.2014,-6.2008,-6.202,-6.2022,-6.2034,-6.2024,-6.1988,-6.1986,-6.1985,-6.1984,0,-6.1924,-6.1897,-6.1975,-6.1968,-6.1968,-6.2027,-6.2021,-6.2064,-6.2049,-6.2107,-6.2118,-6.2094,-6.2139,-6.2111,-6.2157,-6.2141,-6.2241,-6.2219,-6.2238,-6.2233,-6.2311,-6.2305,-6.2564,-6.2596,-6.2351,-6.2354,-6.2356,0,-6.2038,-6.2091,-6.209,-6.2116,-6.2121,-6.2164,-6.2186,-6.2147,-6.2173,-6.2189,-6.2231,-6.2271,-6.2301,-6.2376,-6.2363,-6.2398,-6.2378,-6.2466,-6.2383,-6.2395,-6.2382,-6.238,-6.2386,-6.2484,-6.2487,-6.2489,-6.2491,0,-6.2244,-6.2229,-6.2262,-6.2293,-6.2321,-6.2343,-6.236,-6.2385,-6.2346,-6.2378,-6.2423,-6.2447,-6.2493,-6.2534,-6.2564,-6.2567,-6.2524,-6.2517,-6.2537,-6.2551,-6.2561,-6.2559,-6.2286,-6.2512,-6.251,-6.2508,-6.2507,-6.2506,-6.2399,-6.2444,-6.2451,-6.2491,-6.25,-6.2518,-6.2559,-6.2549,-6.2585,-6.262,-6.2595,-6.2649,-6.2659,-6.2695,-6.2703,-6.2746,-6.271,-6.2738,-6.2746,-6.2754,-6.2766,-6.2553,-6.2751,-6.275,-6.2749,-6.2749,-6.2748,0,-6.2604,-6.2605,-6.2642,-6.2669,-6.2701,-6.2656,-6.2674,-6.2704,-6.2752,-6.2764,-6.2795,-6.2848,-6.2888,-6.288,-6.2916,-6.2952,-6.2934,-6.2963,-6.2961,-6.2963,-6.2794,-6.2774,-6.2978,-6.2978,-6.2978,-6.2978,-6.2978,-6.2978,-6.2714,-6.2789,-6.2775,-6.2855,-6.2855,-6.2908,-6.2922,-6.2939,-6.2949,-6.301,-6.3043,-6.3037,-6.3042,-6.3078,-6.3114,-6.311,-6.3127,-6.3165,-6.3155,-6.2997,-6.2975,-6.2953,-6.2934,-6.3168,-6.3169,-6.332,-6.3322,-6.3323]},{"header":{"parameterUnit":"m.s-1","parameterCategory":1,"la1":30.2991,"la2":30.254,"lo1":-89.0895,"lo2":-89.0444,"dy":0.0017,"dx":0.0017,"nx":28,"ny":28,"refTime":"2023-08-21T21:00:00:Z","depth":0,"parameterNumber":3,"parameterNumberName":"V-component_of_WINDS"},"data":[0,0,0,0,0,0,0,0,0,0,0,0,0,0,0,0,0,0,0,0,0,0,0,0,0,0,0,0,0,0,0,0,0,0,0,0,0,0,0,0,0,0,0,0,0,0,0,0,0,0,0,0,0,0,0,0,0,0,-1.287,-1.287,0,-1.2812,-1.2811,-1.281,-1.2738,-1.2737,-1.2736,-1.2735,-1.2675,-1.2675,-1.2674,0,0,0,0,0,0,0,0,0,0,0,0,0,-1.2919,-1.2919,-1.287,-1.287,-1.2869,-1.2812,-1.2811,-1.281,-1.2738,-1.2737,-1.2736,-1.2734,-1.2675,-1.2675,-1.2674,0,0,0,0,0,0,0,0,0,0,0,0,0,-1.2883,-1.2919,-1.2871,-1.2826,-1.2822,-1.2812,-1.2811,-1.281,-1.2739,-1.2737,-1.2735,-1.2734,-1.2675,-1.2675,-1.2674,-1.2703,0,0,-1.2671,-1.2671,0,0,0,0,0,0,0,0,-1.2885,-1.2882,-1.2834,-1.2829,-1.2824,-1.2781,-1.2806,-1.2774,-1.2739,-1.277,-1.2735,-1.2733,-1.2712,-1.2708,-1.27,-1.27,-1.2698,-1.2671,-1.2671,-1.2671,-1.267,0,0,0,0,0,0,0,-1.2888,-1.2884,-1.2847,-1.2833,-1.2827,-1.2809,-1.2802,-1.28,-1.2751,-1.2767,-1.2762,-1.2756,-1.2709,-1.2701,-1.2698,-1.2697,-1.2671,-1.2671,-1.267,-1.267,-1.2716,-1.2717,0,0,0,0,0,0,-1.2897,-1.2886,-1.2849,-1.2845,-1.2851,-1.281,-1.2802,-1.2796,-1.2751,-1.2742,-1.2758,-1.2753,-1.2704,-1.27,-1.2696,-1.2726,-1.2671,-1.267,-1.2669,-1.2714,-1.2716,-1.2718,0,0,0,0,0,0,-1.2899,-1.2895,-1.2851,-1.2864,-1.2857,-1.2811,-1.2805,-1.2796,-1.2789,-1.2744,-1.2735,-1.2759,-1.2702,-1.2697,-1.2701,-1.2723,-1.2669,-1.2669,-1.2712,-1.2715,-1.2717,-1.2787,0,0,0,0,0,0,-1.29,-1.2896,-1.2906,-1.2865,-1.2857,-1.2858,-1.2806,-1.2796,-1.2787,-1.2781,-1.2743,-1.2735,-1.27,-1.2703,-1.2701,-1.2721,-1.2668,-1.271,-1.2713,-1.2716,-1.2783,-1.2792,-1.28,0,0,0,0,0,-1.2902,-1.2929,-1.2907,-1.2903,-1.287,-1.286,-1.2855,-1.2815,-1.279,-1.28,-1.2771,-1.2736,-1.2721,-1.2704,-1.2701,-1.2721,-1.2708,-1.2712,-1.2716,-1.2779,-1.279,-1.2799,0,0,0,0,0,0,-1.2974,-1.2923,-1.2898,-1.2912,-1.2891,-1.2848,-1.2859,-1.2828,-1.2814,-1.2808,-1.2759,-1.2751,-1.2761,-1.2741,-1.2723,-1.2746,-1.271,-1.2713,-1.2758,-1.2769,-1.2777,-1.2781,-1.2667,0,0,0,0,0,-1.2992,-1.2988,-1.2943,-1.296,-1.295,-1.2907,-1.2901,-1.2872,-1.2848,-1.2838,-1.281,-1.2787,-1.2777,-1.2772,-1.2761,-1.278,-1.2769,-1.2792,-1.28,-1.2807,-1.2811,-1.2818,-1.2827,-1.2731,-1.2731,-1.273,0,0,-1.3028,-1.2999,-1.3,-1.2974,-1.2953,-1.295,-1.29,-1.2899,-1.2896,-1.2838,-1.284,-1.2818,-1.279,-1.2802,-1.2805,-1.2786,-1.2835,-1.2812,-1.2818,-1.2818,-1.2823,-1.2832,-1.284,-1.2733,-1.2733,-1.2732,0,0,-1.3092,-1.307,-1.3081,-1.3062,-1.3032,-1.3003,-1.3005,-1.2966,-1.295,-1.2951,-1.2907,-1.2903,-1.2887,-1.2868,-1.2857,-1.2913,-1.288,-1.291,-1.2954,-1.2962,-1.2969,-1.2976,-1.2994,-1.3002,-1.2914,-1.2914,-1.2914,0,-1.314,-1.3134,-1.3091,-1.3092,-1.3081,-1.3029,-1.3039,-1.3022,-1.2991,-1.2984,-1.2963,-1.2941,-1.2918,-1.2924,-1.2938,-1.293,-1.2931,-1.2914,-1.2972,-1.2978,-1.2983,-1.3,-1.3008,-1.2918,-1.2917,-1.2917,-1.2917,0,-1.3195,-1.3191,-1.3203,-1.3173,-1.3164,-1.317,-1.3127,-1.3122,-1.3094,-1.3067,-1.3068,-1.3039,-1.302,-1.3019,-1.2992,-1.3021,-1.3009,-1.2981,-1.2943,-1.2997,-1.3012,-1.3018,-1.2923,-1.2922,-1.2921,-1.292,0,0,-1.3302,-1.3248,-1.3253,-1.3238,-1.3201,-1.3197,-1.32,-1.3181,-1.3178,-1.3158,-1.3158,-1.3146,-1.3118,-1.3105,-1.3075,-1.3082,-1.3126,-1.3052,-1.3051,-1.3066,-1.3155,-1.3176,-1.3185,-1.3105,-1.3106,-1.3107,-1.3157,0,-1.3359,-1.3361,-1.3322,-1.3334,-1.333,-1.3279,-1.3282,-1.3259,-1.3234,-1.3225,-1.3197,-1.3189,-1.3154,-1.3145,-1.315,-1.312,-1.3144,-1.3116,-1.3104,-1.3104,-1.3112,-1.3193,-1.3215,-1.3264,-1.3163,-1.3164,-1.3164,0,-1.3425,-1.3407,-1.342,-1.3381,-1.3377,-1.338,-1.3359,-1.3353,-1.3325,-1.3306,-1.3291,-1.3257,-1.3256,-1.3221,-1.3219,-1.3201,-1.3194,-1.3178,-1.3179,-1.3176,-1.3137,-1.319,-1.3279,-1.3286,-1.3174,-1.3173,-1.3172,0,-1.3501,-1.3481,-1.3485,-1.3474,-1.3429,-1.3432,-1.3413,-1.3384,-1.3375,-1.3357,-1.335,-1.3332,-1.3322,-1.3309,-1.327,-1.3248,-1.3272,-1.3234,-1.3255,-1.3256,-1.3262,-1.3262,-1.3349,-1.3259,-1.3259,-1.3259,-1.3259,0,-1.3567,-1.3576,-1.3518,-1.3521,-1.3529,-1.3484,-1.3493,-1.347,-1.3444,-1.3441,-1.3397,-1.3394,-1.3343,-1.3335,-1.3305,-1.3307,-1.3303,-1.3287,-1.3279,-1.329,-1.3292,-1.3284,-1.3279,-1.3261,-1.3261,-1.326,-1.326,0,-1.3653,-1.3615,-1.3616,-1.3573,-1.3562,-1.3571,-1.3533,-1.3534,-1.3505,-1.3501,-1.3498,-1.3453,-1.3441,-1.3401,-1.3379,-1.3359,-1.337,-1.3355,-1.3379,-1.3373,-1.3397,-1.3395,-1.3481,-1.349,-1.3396,-1.3397,-1.3398,0,-1.3698,-1.3703,-1.3661,-1.3655,-1.3639,-1.3631,-1.3621,-1.3576,-1.3567,-1.3536,-1.354,-1.3524,-1.3509,-1.3492,-1.3457,-1.344,-1.3423,-1.3455,-1.342,-1.3431,-1.3422,-1.3422,-1.3421,-1.3462,-1.3463,-1.3464,-1.3465,0,-1.378,-1.3761,-1.3748,-1.3729,-1.3719,-1.3701,-1.3681,-1.3679,-1.3629,-1.3622,-1.3609,-1.3597,-1.3574,-1.3559,-1.3536,-1.3516,-1.3482,-1.3476,-1.348,-1.3492,-1.3505,-1.3497,-1.3398,-1.3474,-1.3473,-1.3473,-1.3472,-1.3472,-1.3846,-1.3848,-1.3818,-1.3805,-1.3786,-1.3768,-1.3766,-1.3737,-1.3725,-1.3703,-1.3677,-1.3667,-1.3638,-1.3603,-1.3586,-1.3576,-1.3558,-1.3564,-1.3565,-1.3567,-1.3572,-1.3507,-1.3572,-1.3572,-1.3572,-1.3571,-1.3571,0,-1.3925,-1.3903,-1.3892,-1.3865,-1.3855,-1.3824,-1.38,-1.3793,-1.3785,-1.3761,-1.3747,-1.3731,-1.3716,-1.368,-1.366,-1.366,-1.3644,-1.3656,-1.3655,-1.3651,-1.359,-1.3588,-1.3669,-1.3669,-1.3669,-1.3669,-1.3669,-1.3669,-1.3965,-1.3967,-1.3943,-1.3934,-1.3912,-1.3902,-1.389,-1.3873,-1.3854,-1.3838,-1.3825,-1.3802,-1.3772,-1.375,-1.3735,-1.3724,-1.3719,-1.3736,-1.3721,-1.3665,-1.3655,-1.3646,-1.3644,-1.3736,-1.3736,-1.3781,-1.3782,-1.3782]}]]